AB5KT-1 Weather Reports


Display with metric or nautical units.
time (UTC)temp
F
wind
direction
speed
MPH
gust
MPH
rain 1hr
in
rain 24hr
in
rain mn
in
humidity
%
barometer
mb
20260509062613 73 109 0.0 5.0 0.00 0.00 0.00 89 1010.8
20260509062111 73 94 0.0 4.0 0.00 0.00 0.00 88 1011.0
20260509061610 73 94 1.0 7.0 0.00 0.00 0.00 88 1011.0
20260509061110 73 71 1.0 7.0 0.00 0.00 0.00 88 1010.9
20260509060611 73 111 0.0 2.0 0.00 0.00 0.00 88 1011.0
20260509060110 73 111 1.0 5.0 0.00 0.00 0.00 88 1011.0
20260509055615 73 105 0.0 5.0 0.00 0.00 0.00 88 1011.0
20260509055611 73 103 1.0 5.0 0.00 0.00 0.00 88 1011.0
20260509054608 73 115 1.0 2.0 0.00 0.00 0.00 88 1011.0
20260509054109 73 115 1.0 5.0 0.00 0.00 0.00 88 1011.0
20260509053612 73 115 1.0 5.0 0.00 0.00 0.00 88 1011.1
20260509053608 73 105 1.0 5.0 0.00 0.00 0.00 88 1011.0
20260509052607 73 100 1.0 6.0 0.00 0.00 0.00 88 1011.3
20260509052113 73 125 1.0 5.0 0.00 0.00 0.00 87 1011.5
20260509052109 73 114 1.0 6.0 0.00 0.00 0.00 88 1011.6
20260509051104 73 128 0.0 2.0 0.00 0.00 0.00 87 1011.4
20260509050603 72 121 0.0 5.0 0.00 0.00 0.00 87 1011.5
20260509045600 72 130 0.0 1.0 0.00 0.00 0.00 87 1011.5
20260509045101 72 130 0.0 1.0 0.00 0.00 0.00 87 1011.5
20260509044558 72 130 0.0 2.0 0.00 0.00 0.00 87 1011.5
20260509044057 72 130 0.0 4.0 0.00 0.00 0.00 87 1011.3
20260509043557 72 123 1.0 4.0 0.00 0.00 0.00 86 1011.2
20260509043057 72 105 1.0 4.0 0.00 0.00 0.00 86 1011.3
20260509042557 72 103 0.0 4.0 0.00 0.00 0.00 86 1011.2
20260509042058 72 103 1.0 4.0 0.00 0.00 0.00 86 1011.1
20260509042054 72 131 1.0 4.0 0.00 0.00 0.00 86 1011.1
20260509041658 72 115 1.0 4.0 0.00 0.00 0.00 86 1011.1
20260509040553 72 90 0.0 4.0 0.00 0.00 0.00 86 1011.0
20260509040050 72 120 0.0 4.0 0.00 0.00 0.00 86 1011.0
20260509035549 72 120 1.0 6.0 0.00 0.00 0.00 86 1010.9
20260509035047 72 128 1.0 6.0 0.00 0.00 0.00 86 1010.6
20260509034547 72 99 1.0 4.0 0.00 0.00 0.00 85 1010.5
20260509034045 72 111 1.0 6.0 0.00 0.00 0.00 85 1010.3
20260509033545 73 84 2.0 6.0 0.00 0.00 0.00 85 1010.2
20260509033045 73 75 2.0 7.0 0.00 0.00 0.00 85 1010.1
20260509032543 73 108 2.0 7.0 0.00 0.00 0.00 85 1010.0
20260509032041 73 126 3.0 7.0 0.00 0.00 0.00 84 1010.1
20260509031538 73 46 3.0 7.0 0.00 0.00 0.00 84 1010.2
20260509031041 73 17 2.0 7.0 0.00 0.00 0.00 84 1010.1
20260509031037 73 57 2.0 7.0 0.00 0.00 0.00 84 1010.1
20260509030035 73 71 2.0 7.0 0.00 0.00 0.00 83 1010.1
20260509025535 73 126 1.0 6.0 0.00 0.00 0.00 83 1010.1
20260509025034 74 113 2.0 7.0 0.00 0.00 0.00 83 1010.1
20260509024535 74 67 2.0 7.0 0.00 0.00 0.00 82 1010.1
20260509024035 74 75 1.0 9.0 0.00 0.00 0.00 82 1010.0
20260509023533 74 96 2.0 9.0 0.00 0.00 0.00 82 1009.9
20260509023033 74 147 2.0 7.0 0.00 0.00 0.00 81 1009.9
20260509022530 74 90 2.0 6.0 0.00 0.00 0.00 81 1010.0
20260509022031 74 67 1.0 6.0 0.00 0.00 0.00 81 1010.0
20260509021535 74 39 1.0 6.0 0.00 0.00 0.00 81 1009.9
20260509021531 74 95 1.0 6.0 0.00 0.00 0.00 81 1010.0
20260509020531 74 28 1.0 4.0 0.00 0.00 0.00 80 1009.6
20260509020527 74 32 1.0 4.0 0.00 0.00 0.00 80 1009.7
20260509020131 74 37 1.0 4.0 0.00 0.00 0.00 80 1009.5
20260509015026 74 37 1.0 4.0 0.00 0.00 0.00 80 1009.4
20260509014527 74 39 1.0 5.0 0.00 0.00 0.00 79 1009.3
20260509014027 75 30 1.0 5.0 0.00 0.00 0.00 79 1009.1
20260509013524 75 105 1.0 4.0 0.00 0.00 0.00 78 1009.0
20260509013025 75 39 1.0 4.0 0.00 0.00 0.00 78 1009.0
20260509012527 76 71 0.0 2.0 0.00 0.00 0.00 77 1009.1
20260509012523 75 59 1.0 4.0 0.00 0.00 0.00 77 1009.0
20260509011527 76 74 1.0 5.0 0.00 0.00 0.00 77 1009.1
20260509011523 76 74 1.0 5.0 0.00 0.00 0.00 76 1009.1
20260509010526 76 94 2.0 7.0 0.00 0.00 0.00 76 1009.0
20260509010522 76 95 1.0 7.0 0.00 0.00 0.00 76 1009.1
20260509005525 77 130 2.0 6.0 0.00 0.00 0.00 75 1008.9
20260509005521 77 98 2.0 5.0 0.00 0.00 0.00 76 1009.0
20260509004525 77 19 2.0 7.0 0.00 0.00 0.00 75 1009.0
20260509004521 77 78 3.0 7.0 0.00 0.00 0.00 75 1008.9
20260509003520 77 9 2.0 7.0 0.00 0.00 0.00 74 1008.9
20260509003021 77 21 3.0 7.0 0.00 0.00 0.00 74 1008.9
20260509002521 78 31 2.0 7.0 0.00 0.00 0.00 73 1008.8
20260509002024 79 80 2.0 6.0 0.00 0.00 0.00 72 1008.8
20260509002020 78 16 2.0 6.0 0.00 0.00 0.00 72 1008.8
20260509001025 78 21 2.0 5.0 0.00 0.00 0.00 73 1009.0
20260509001021 78 77 2.0 6.0 0.00 0.00 0.00 73 1008.9
20260509000021 78 43 3.0 8.0 0.00 0.00 0.00 73 1009.1
20260508235519 78 51 3.0 8.0 0.00 0.00 0.00 72 1009.0
20260508235019 79 73 1.0 7.0 0.00 0.00 0.00 70 1009.2
20260508234517 80 51 1.0 5.0 0.00 0.00 0.00 71 1009.1
20260508234017 79 51 2.0 6.0 0.00 0.00 0.00 71 1009.0
20260508233516 79 96 2.0 6.0 0.00 0.00 0.00 72 1009.0
20260508233016 79 114 1.0 4.0 0.00 0.00 0.00 72 1009.0
20260508232517 79 101 2.0 5.0 0.00 0.00 0.00 72 1009.0
20260508232021 81 140 2.0 8.0 0.00 0.00 0.00 68 1009.1
20260508232017 80 9 2.0 8.0 0.00 0.00 0.00 70 1009.1
20260508231016 81 103 2.0 7.0 0.00 0.00 0.00 68 1009.1
20260508230517 80 131 1.0 6.0 0.00 0.00 0.00 70 1009.0
20260508230017 79 145 2.0 5.0 0.00 0.00 0.00 71 1009.0
20260508225514 79 115 2.0 6.0 0.00 0.00 0.00 73 1009.1
20260508225019 78 139 2.0 7.0 0.00 0.00 0.00 72 1009.1
20260508225015 79 47 1.0 7.0 0.00 0.00 0.00 72 1009.1
20260508224014 79 123 2.0 6.0 0.00 0.00 0.00 72 1009.2
20260508223517 79 107 2.0 8.0 0.00 0.00 0.00 71 1009.2
20260508223513 79 98 2.0 8.0 0.00 0.00 0.00 71 1009.1
20260508223117 80 65 2.0 5.0 0.00 0.00 0.00 71 1009.3
20260508222013 79 96 2.0 5.0 0.00 0.00 0.00 73 1009.4
20260508221513 78 141 2.0 6.0 0.00 0.00 0.00 72 1009.5
20260508221012 78 97 2.0 6.0 0.00 0.00 0.00 72 1009.4
20260508220513 78 113 3.0 7.0 0.00 0.00 0.00 73 1009.4
20260508220013 78 25 3.0 8.0 0.00 0.00 0.00 73 1009.5
20260508215513 78 69 3.0 8.0 0.00 0.00 0.00 73 1009.5
20260508215013 78 53 2.0 7.0 0.00 0.00 0.00 72 1009.6
20260508214515 78 40 1.0 6.0 0.00 0.00 0.00 72 1009.6
20260508214511 78 86 2.0 8.0 0.00 0.00 0.00 73 1009.7
20260508213511 78 107 3.0 9.0 0.00 0.00 0.00 72 1009.8
20260508213011 78 57 3.0 10.0 0.00 0.00 0.00 71 1009.7
20260508212511 78 94 3.0 10.0 0.00 0.00 0.00 72 1009.7
20260508212011 78 131 3.0 9.0 0.00 0.00 0.00 73 1009.8
20260508211511 78 71 3.0 7.0 0.00 0.00 0.00 72 1009.9
20260508211011 77 120 2.0 7.0 0.00 0.00 0.00 73 1010.0
20260508210511 77 58 2.0 9.0 0.00 0.00 0.00 73 1010.1
20260508210011 77 93 2.0 9.0 0.00 0.00 0.00 73 1010.2
20260508205514 77 96 2.0 7.0 0.00 0.00 0.00 73 1010.4
20260508205510 77 115 2.0 8.0 0.00 0.00 0.00 73 1010.3
20260508204508 77 130 2.0 7.0 0.00 0.00 0.00 72 1010.5
20260508204007 78 118 2.0 6.0 0.00 0.00 0.00 72 1010.6
20260508203507 78 101 1.0 6.0 0.00 0.00 0.00 72 1010.6
20260508203006 78 117 2.0 7.0 0.00 0.00 0.00 71 1010.6
20260508202507 78 110 2.0 7.0 0.00 0.00 0.00 70 1010.6
20260508202007 79 98 2.0 6.0 0.00 0.00 0.00 70 1010.6
20260508201507 79 141 1.0 5.0 0.00 0.00 0.00 69 1010.6
20260508201007 80 82 2.0 7.0 0.00 0.00 0.00 69 1010.6
20260508200507 79 94 2.0 7.0 0.00 0.00 0.00 70 1010.5
20260508200007 79 128 2.0 6.0 0.00 0.00 0.00 70 1010.5
20260508195511 79 97 1.0 6.0 0.00 0.00 0.00 70 1010.6
20260508195507 79 111 2.0 6.0 0.00 0.00 0.00 71 1010.5
20260508194505 79 136 2.0 7.0 0.00 0.00 0.00 71 1010.6
20260508194005 78 132 2.0 8.0 0.00 0.00 0.00 71 1010.7
20260508193509 79 61 2.0 10.0 0.00 0.00 0.00 70 1010.7
20260508193505 79 111 2.0 10.0 0.00 0.00 0.00 69 1010.7
20260508192505 79 103 2.0 8.0 0.00 0.00 0.00 70 1010.8
20260508192009 80 123 3.0 7.0 0.00 0.00 0.00 68 1010.8
20260508192005 79 74 3.0 8.0 0.00 0.00 0.00 69 1010.9
20260508191005 80 119 2.0 7.0 0.00 0.00 0.00 69 1010.9
20260508190505 80 119 2.0 9.0 0.00 0.00 0.00 69 1010.8
20260508190501 79 101 3.0 9.0 0.00 0.00 0.00 71 1011.0
20260508190104 80 226 3.0 9.0 0.00 0.00 0.00 70 1011.0
20260508184959 78 66 3.0 9.0 0.00 0.00 0.00 71 1011.1
20260508184457 79 36 2.0 9.0 0.00 0.00 0.00 69 1011.2
20260508183957 79 65 2.0 9.0 0.00 0.00 0.00 69 1011.2
20260508183457 79 119 2.0 5.0 0.00 0.00 0.00 70 1011.2
20260508182957 79 98 2.0 7.0 0.00 0.00 0.00 70 1011.3
20260508182457 78 113 2.0 8.0 0.00 0.00 0.00 70 1011.4
20260508181957 78 81 2.0 8.0 0.00 0.00 0.00 70 1011.4
20260508181458 78 37 1.0 7.0 0.00 0.00 0.00 71 1011.5
20260508180959 77 122 2.0 8.0 0.00 0.00 0.00 73 1011.6
20260508180955 76 152 2.0 8.0 0.00 0.00 0.00 73 1011.8
20260508180559 76 123 2.0 7.0 0.00 0.00 0.00 74 1011.7
20260508180059 75 68 2.0 7.0 0.00 0.00 0.00 74 1011.8
20260508174955 74 113 1.0 5.0 0.00 0.00 0.00 76 1012.1
20260508174455 73 86 1.0 5.0 0.00 0.00 0.00 76 1012.3
20260508173955 73 110 1.0 6.0 0.00 0.00 0.00 77 1012.3
20260508173455 72 67 2.0 6.0 0.00 0.00 0.00 78 1012.4
20260508172955 71 101 1.0 6.0 0.00 0.00 0.00 78 1012.5
20260508172455 71 67 0.0 5.0 0.00 0.00 0.00 78 1012.6
20260508171954 70 164 0.0 2.0 0.00 0.00 0.00 79 1012.6
20260508171453 70 88 0.0 1.0 0.00 0.00 0.00 79 1012.7
20260508170951 70 88 0.0 2.0 0.00 0.00 0.00 80 1012.8
20260508170452 70 84 0.0 2.0 0.00 0.00 0.00 80 1012.9
20260508165951 69 84 1.0 2.0 0.00 0.00 0.00 81 1012.8
20260508165451 69 40 0.0 2.0 0.00 0.00 0.00 81 1012.9
20260508164952 69 350 0.0 0.0 0.00 0.00 0.00 81 1013.0
20260508164451 68 350 0.0 2.0 0.00 0.00 0.00 81 1013.0
20260508163951 68 350 0.0 2.0 0.00 0.00 0.00 81 1013.1
20260508163449 68 243 1.0 6.0 0.00 0.00 0.00 81 1013.1
20260508162949 68 329 1.0 6.0 0.00 0.00 0.00 81 1013.1
20260508162447 67 326 1.0 5.0 0.00 0.00 0.00 82 1013.0
20260508161947 67 24 2.0 6.0 0.00 0.00 0.00 82 1013.0
20260508161450 67 343 2.0 6.0 0.00 0.00 0.00 82 1013.1
20260508161446 67 342 1.0 6.0 0.00 0.00 0.00 82 1013.0
20260508161049 66 10 2.0 6.0 0.00 0.00 0.00 83 1013.2
20260508160442 66 355 2.0 6.0 0.00 0.00 0.00 83 1013.1
20260508155442 66 40 2.0 5.0 0.00 0.00 0.00 83 1013.2
20260508154941 66 50 3.0 6.0 0.00 0.00 0.00 83 1013.3
20260508154442 65 327 3.0 6.0 0.00 0.00 0.00 83 1013.4
20260508153945 65 342 2.0 5.0 0.00 0.00 0.00 84 1013.6
20260508153941 65 33 3.0 6.0 0.00 0.00 0.00 84 1013.5
20260508152941 65 348 2.0 5.0 0.00 0.00 0.00 84 1013.5
20260508152442 65 15 2.0 5.0 0.00 0.00 0.00 84 1013.8
20260508151940 65 346 1.0 5.0 0.00 0.00 0.00 84 1013.8
20260508151439 65 39 1.0 5.0 0.00 0.00 0.00 84 1014.0
20260508150940 65 13 2.0 6.0 0.00 0.00 0.00 84 1014.0
20260508150439 65 28 3.0 6.0 0.00 0.00 0.00 84 1013.9
20260508145939 65 338 2.0 6.0 0.00 0.00 0.00 84 1013.9
20260508145439 65 355 1.0 4.0 0.00 0.00 0.00 84 1014.1
20260508144937 65 13 2.0 6.0 0.00 0.00 0.00 83 1014.1
20260508144437 65 12 3.0 6.0 0.00 0.00 0.00 84 1014.0
20260508143938 64 82 2.0 6.0 0.00 0.00 0.00 84 1013.9
20260508143436 64 54 2.0 8.0 0.00 0.00 0.00 84 1013.8
20260508142939 64 329 1.0 5.0 0.00 0.00 0.00 84 1013.8
20260508142935 64 321 2.0 8.0 0.00 0.00 0.00 84 1013.8
20260508141935 64 26 1.0 5.0 0.00 0.00 0.00 84 1014.0
20260508141435 63 28 1.0 5.0 0.00 0.00 0.00 84 1014.1
20260508140936 63 40 1.0 5.0 0.00 0.00 0.00 84 1014.0
20260508140439 63 25 2.0 6.0 0.00 0.00 0.00 84 1014.0
20260508140435 63 28 1.0 5.0 0.00 0.00 0.00 84 1014.0
20260508135436 63 57 1.0 6.0 0.00 0.00 0.00 83 1014.1
20260508134934 63 351 2.0 6.0 0.00 0.00 0.00 83 1014.1
20260508134434 63 38 2.0 6.0 0.00 0.00 0.00 83 1014.0
20260508133933 63 36 2.0 5.0 0.00 0.00 0.00 83 1013.9
20260508133438 63 21 3.0 8.0 0.00 0.00 0.00 82 1013.8
20260508133434 63 81 2.0 8.0 0.00 0.00 0.00 83 1013.8
20260508132436 63 46 3.0 10.0 0.00 0.00 0.00 82 1013.6
20260508132432 63 37 4.0 10.0 0.00 0.00 0.00 82 1013.5
20260508131430 63 15 3.0 8.0 0.00 0.00 0.00 82 1013.3
20260508130929 63 38 2.0 6.0 0.00 0.00 0.00 83 1013.4
20260508130432 62 42 2.0 7.0 0.00 0.00 0.00 83 1013.5
20260508130428 63 57 2.0 6.0 0.00 0.00 0.00 83 1013.5
20260508125429 62 74 3.0 7.0 0.00 0.00 0.00 83 1013.5
20260508125425 62 346 3.0 5.0 0.00 0.00 0.00 83 1013.5
20260508124423 62 38 1.0 5.0 0.00 0.00 0.00 83 1013.7
20260508123923 62 14 1.0 5.0 0.00 0.00 0.00 83 1013.7
20260508123423 62 31 2.0 5.0 0.00 0.00 0.00 83 1013.7
20260508122921 62 26 2.0 6.0 0.00 0.00 0.00 83 1013.6
20260508122425 62 25 2.0 6.0 0.00 0.00 0.00 83 1013.9
20260508122421 62 33 3.0 6.0 0.00 0.00 0.00 83 1013.7
20260508122025 63 35 2.0 7.0 0.00 0.00 0.00 83 1013.9
20260508121525 63 23 3.0 7.0 0.00 0.00 0.00 83 1013.8
20260508120421 63 355 3.0 7.0 0.00 0.00 0.00 83 1013.9
20260508115921 63 15 2.0 6.0 0.00 0.00 0.00 83 1014.0
20260508115421 63 76 2.0 6.0 0.00 0.00 0.00 83 1014.1
20260508114922 63 35 1.0 4.0 0.00 0.00 0.00 83 1014.3
20260508114918 63 19 1.0 6.0 0.00 0.00 0.00 83 1014.1
20260508113918 63 27 1.0 4.0 0.00 0.00 0.00 83 1014.2
20260508113419 63 34 1.0 4.0 0.00 0.00 0.00 83 1014.2
20260508112922 63 345 3.0 8.0 0.00 0.00 0.00 83 1014.0
20260508112918 63 5 2.0 8.0 0.00 0.00 0.00 83 1014.1
20260508111919 63 21 1.0 7.0 0.00 0.00 0.00 84 1013.9
20260508111420 63 304 3.0 7.0 0.00 0.00 0.00 84 1013.6
20260508111416 63 9 2.0 7.0 0.00 0.00 0.00 84 1014.0
20260508110419 63 18 2.0 6.0 0.00 0.00 0.00 84 1013.5
20260508110414 63 28 3.0 6.0 0.00 0.00 0.00 84 1013.6
20260508105415 63 32 2.0 7.0 0.00 0.00 0.00 84 1013.4
20260508104913 63 51 2.0 7.0 0.00 0.00 0.00 84 1013.5
20260508104412 63 329 3.0 7.0 0.00 0.00 0.00 84 1013.7
20260508103911 63 64 3.0 6.0 0.00 0.00 0.00 84 1013.4
20260508103411 63 20 2.0 6.0 0.00 0.00 0.00 83 1014.0
20260508102910 63 254 1.0 4.0 0.00 0.00 0.00 84 1014.5
20260508102410 63 15 0.0 4.0 0.00 0.00 0.00 84 1014.5
20260508101911 63 18 0.0 1.0 0.00 0.00 0.00 84 1014.3
20260508101411 63 18 0.0 1.0 0.00 0.00 0.00 84 1014.2
20260508100908 63 18 0.0 2.0 0.00 0.00 0.00 84 1014.1
20260508100409 63 18 0.0 2.0 0.00 0.00 0.00 84 1013.7
20260508095907 63 21 0.0 2.0 0.00 0.00 0.00 84 1013.6
20260508095407 63 21 0.0 2.0 0.00 0.00 0.00 84 1013.7
20260508094904 63 327 0.0 2.0 0.00 0.00 0.00 84 1013.9
20260508094403 63 271 0.0 2.0 0.00 0.00 0.00 84 1014.1
20260508093901 63 350 0.0 2.0 0.00 0.00 0.00 84 1014.0
20260508093359 63 341 0.0 4.0 0.00 0.00 0.00 83 1013.8
20260508092859 63 294 0.0 4.0 0.00 0.00 0.00 83 1013.8
20260508092357 63 109 1.0 7.0 0.00 0.00 0.00 82 1013.6
20260508091855 64 109 1.0 7.0 0.00 0.00 0.00 81 1013.4
20260508091355 64 94 1.0 5.0 0.00 0.00 0.00 81 1013.1
20260508090854 64 113 1.0 4.0 0.00 0.00 0.00 80 1013.5
20260508090355 64 68 1.0 6.0 0.00 0.00 0.00 80 1014.0
20260508085855 64 10 1.0 6.0 0.00 0.00 0.00 79 1014.1
20260508085354 64 40 2.0 6.0 0.00 0.00 0.00 79 1014.0
20260508084855 64 63 3.0 6.0 0.00 0.00 0.00 79 1013.8
20260508084358 64 34 2.0 6.0 0.00 0.00 0.00 78 1013.9
20260508084353 64 10 1.0 5.0 0.00 0.00 0.00 78 1014.1
20260508083358 64 29 1.0 2.0 0.00 0.00 0.00 78 1014.2
20260508083353 64 19 0.0 2.0 0.00 0.00 0.00 78 1014.2
20260508082353 64 29 1.0 4.0 0.00 0.00 0.00 78 1014.2
20260508081857 64 61 1.0 6.0 0.00 0.00 0.00 77 1014.2
20260508081853 64 51 1.0 6.0 0.00 0.00 0.00 78 1014.2
20260508080853 64 39 1.0 5.0 0.00 0.00 0.00 77 1014.3
20260508080353 64 13 1.0 5.0 0.00 0.00 0.00 77 1014.4
20260508075850 64 84 2.0 5.0 0.00 0.00 0.00 76 1014.0
20260508075349 64 57 1.0 4.0 0.00 0.00 0.00 75 1014.2
20260508074850 64 24 1.0 5.0 0.00 0.00 0.00 75 1014.6
20260508074349 64 32 1.0 5.0 0.00 0.00 0.00 75 1014.5
20260508073849 64 24 0.0 2.0 0.00 0.00 0.00 75 1014.6
20260508073352 64 19 0.0 1.0 0.00 0.00 0.00 75 1014.9
20260508073348 64 19 0.0 1.0 0.00 0.00 0.00 75 1014.8
20260508072347 64 19 0.0 1.0 0.00 0.00 0.00 75 1014.9
20260508071851 64 19 1.0 4.0 0.00 0.00 0.00 74 1015.0
20260508071847 64 19 0.0 2.0 0.00 0.00 0.00 75 1014.8
20260508071451 65 20 1.0 4.0 0.00 0.00 0.00 73 1015.1
20260508070347 65 35 0.0 2.0 0.00 0.00 0.00 73 1014.9
20260508065848 65 37 1.0 2.0 0.00 0.00 0.00 70 1015.0
20260508065844 65 35 0.0 2.0 0.00 0.00 0.00 72 1014.9
20260508064844 65 38 1.0 5.0 0.00 0.00 0.00 69 1015.0
20260508064343 65 39 1.0 5.0 0.00 0.00 0.00 69 1014.9
20260508063843 65 34 0.0 4.0 0.00 0.00 0.00 69 1015.0
20260508063343 65 85 0.0 4.0 0.00 0.00 0.00 69 1015.1